Year,Month,Day,Hour,Minute,Value (Times are PST for temperature in C)
2014,04,25,00,00,7.90
2014,04,25,00,01,7.90
2014,04,25,00,02,7.90
2014,04,25,00,03,7.80
2014,04,25,00,04,7.80
2014,04,25,00,05,7.80
2014,04,25,00,06,7.80
2014,04,25,00,07,7.80
2014,04,25,00,08,7.80
2014,04,25,00,09,7.70
2014,04,25,00,10,7.70
2014,04,25,00,11,7.70
2014,04,25,00,12,7.70
2014,04,25,00,13,7.70
2014,04,25,00,14,7.70
2014,04,25,00,15,7.70
2014,04,25,00,16,7.70
2014,04,25,00,17,7.70
2014,04,25,00,18,7.70
2014,04,25,00,19,7.70
2014,04,25,00,20,7.60
2014,04,25,00,21,7.60
2014,04,25,00,22,7.60
2014,04,25,00,23,7.60
2014,04,25,00,24,7.60
2014,04,25,00,25,7.60
2014,04,25,00,26,7.60
2014,04,25,00,27,7.60
2014,04,25,00,28,7.60
2014,04,25,00,29,7.50
2014,04,25,00,30,7.50
2014,04,25,00,31,7.50
2014,04,25,00,32,7.40
2014,04,25,00,33,7.40
2014,04,25,00,34,7.40
2014,04,25,00,35,7.40
2014,04,25,00,36,7.40
2014,04,25,00,37,7.40
2014,04,25,00,38,7.40
2014,04,25,00,39,7.30
2014,04,25,00,40,7.30
2014,04,25,00,41,7.30
2014,04,25,00,42,7.30
2014,04,25,00,43,7.30
2014,04,25,00,44,7.20
2014,04,25,00,45,7.20
2014,04,25,00,46,7.20
2014,04,25,00,47,7.20
2014,04,25,00,48,7.10
2014,04,25,00,49,7.10
2014,04,25,00,50,7.10
2014,04,25,00,51,7.10
2014,04,25,00,52,7.10
2014,04,25,00,53,7.20
2014,04,25,00,54,7.20
2014,04,25,00,55,7.20
2014,04,25,00,56,7.20
2014,04,25,00,57,7.20
2014,04,25,00,58,7.20
2014,04,25,00,59,7.20
2014,04,25,01,00,7.20
2014,04,25,01,01,7.20
2014,04,25,01,02,7.20
2014,04,25,01,03,7.20
2014,04,25,01,04,7.20
2014,04,25,01,05,7.20
2014,04,25,01,06,7.20
2014,04,25,01,07,7.20
2014,04,25,01,08,7.20
2014,04,25,01,09,7.20
2014,04,25,01,10,7.20
2014,04,25,01,11,7.20
2014,04,25,01,12,7.20
2014,04,25,01,13,7.20
2014,04,25,01,14,7.10
2014,04,25,01,15,7.10
2014,04,25,01,16,7.10
2014,04,25,01,17,7.00
2014,04,25,01,18,7.00
2014,04,25,01,19,6.90
2014,04,25,01,20,6.90
2014,04,25,01,21,6.80
2014,04,25,01,22,6.80
2014,04,25,01,23,6.70
2014,04,25,01,24,6.70
2014,04,25,01,25,6.70
2014,04,25,01,26,6.70
2014,04,25,01,27,6.70
2014,04,25,01,28,6.70
2014,04,25,01,29,6.70
2014,04,25,01,30,6.70
2014,04,25,01,31,6.70
2014,04,25,01,32,6.70
2014,04,25,01,33,6.70
2014,04,25,01,34,6.70
2014,04,25,01,35,6.70
2014,04,25,01,36,6.70
2014,04,25,01,37,6.60
2014,04,25,01,38,6.60
2014,04,25,01,39,6.60
2014,04,25,01,40,6.60
2014,04,25,01,41,6.60
2014,04,25,01,42,6.50
2014,04,25,01,43,6.50
2014,04,25,01,44,6.50
2014,04,25,01,45,6.50
2014,04,25,01,46,6.50
2014,04,25,01,47,6.50
2014,04,25,01,48,6.50
2014,04,25,01,49,6.50
2014,04,25,01,50,6.50
2014,04,25,01,51,6.50
2014,04,25,01,52,6.50
2014,04,25,01,53,6.50
2014,04,25,01,54,6.50
2014,04,25,01,55,6.50
2014,04,25,01,56,6.50
2014,04,25,01,57,6.50
2014,04,25,01,58,6.50
2014,04,25,01,59,6.40
2014,04,25,02,00,6.40
2014,04,25,02,01,6.30
2014,04,25,02,02,6.30
2014,04,25,02,03,6.30
2014,04,25,02,04,6.30
2014,04,25,02,05,6.20
2014,04,25,02,06,6.20
2014,04,25,02,07,6.20
2014,04,25,02,08,6.20
2014,04,25,02,09,6.20
2014,04,25,02,10,6.10
2014,04,25,02,11,6.00
2014,04,25,02,12,6.00
2014,04,25,02,13,5.90
2014,04,25,02,14,5.90
2014,04,25,02,15,5.80
2014,04,25,02,16,5.80
2014,04,25,02,17,5.80
2014,04,25,02,18,5.80
2014,04,25,02,19,5.80
2014,04,25,02,20,5.80
2014,04,25,02,21,5.90
2014,04,25,02,22,5.90
2014,04,25,02,23,5.80
2014,04,25,02,24,5.80
2014,04,25,02,25,5.70
2014,04,25,02,26,5.60
2014,04,25,02,27,5.40
2014,04,25,02,28,5.20
2014,04,25,02,29,5.20
2014,04,25,02,30,5.10
2014,04,25,02,31,5.00
2014,04,25,02,32,4.90
2014,04,25,02,33,4.90
2014,04,25,02,34,4.90
2014,04,25,02,35,4.80
2014,04,25,02,36,4.80
2014,04,25,02,37,4.70
2014,04,25,02,38,4.50
2014,04,25,02,39,4.40
2014,04,25,02,40,4.30
2014,04,25,02,41,4.20
2014,04,25,02,42,4.20
2014,04,25,02,43,4.10
2014,04,25,02,44,4.10
2014,04,25,02,45,4.00
2014,04,25,02,46,4.00
2014,04,25,02,47,3.90
2014,04,25,02,48,3.90
2014,04,25,02,49,3.90
2014,04,25,02,50,3.90
2014,04,25,02,51,3.90
2014,04,25,02,52,3.80
2014,04,25,02,53,3.80
2014,04,25,02,54,3.90
2014,04,25,02,55,3.90
2014,04,25,02,56,3.90
2014,04,25,02,57,4.00
2014,04,25,02,58,4.10
2014,04,25,02,59,4.20
2014,04,25,03,00,4.10
2014,04,25,03,01,4.10
2014,04,25,03,02,4.00
2014,04,25,03,03,3.90
2014,04,25,03,04,3.90
2014,04,25,03,05,3.80
2014,04,25,03,06,3.80
2014,04,25,03,07,3.80
2014,04,25,03,08,3.70
2014,04,25,03,09,3.70
2014,04,25,03,10,3.70
2014,04,25,03,11,3.60
2014,04,25,03,12,3.60
2014,04,25,03,13,3.60
2014,04,25,03,14,3.60
2014,04,25,03,15,3.60
2014,04,25,03,16,3.60
2014,04,25,03,17,3.60
2014,04,25,03,18,3.60
2014,04,25,03,19,3.60
2014,04,25,03,20,3.60
2014,04,25,03,21,3.60
2014,04,25,03,22,3.60
2014,04,25,03,23,3.60
2014,04,25,03,24,3.60
2014,04,25,03,25,3.60
2014,04,25,03,26,3.60
2014,04,25,03,27,3.60
2014,04,25,03,28,3.60
2014,04,25,03,29,3.60
2014,04,25,03,30,3.60
2014,04,25,03,31,3.60
2014,04,25,03,32,3.60
2014,04,25,03,33,3.60
2014,04,25,03,34,3.60
2014,04,25,03,35,3.60
2014,04,25,03,36,3.60
2014,04,25,03,37,3.60
2014,04,25,03,38,3.60
2014,04,25,03,39,3.60
2014,04,25,03,40,3.50
2014,04,25,03,41,3.40
2014,04,25,03,42,3.30
2014,04,25,03,43,3.10
2014,04,25,03,44,3.00
2014,04,25,03,45,2.90
2014,04,25,03,46,2.80
2014,04,25,03,47,2.70
2014,04,25,03,48,2.70
2014,04,25,03,49,2.70
2014,04,25,03,50,2.70
2014,04,25,03,51,2.70
2014,04,25,03,52,2.60
2014,04,25,03,53,2.60
2014,04,25,03,54,2.50
2014,04,25,03,55,2.50
2014,04,25,03,56,2.50
2014,04,25,03,57,2.50
2014,04,25,03,58,2.50
2014,04,25,03,59,2.50
2014,04,25,04,00,2.40
2014,04,25,04,01,2.40
2014,04,25,04,02,2.40
2014,04,25,04,03,2.40
2014,04,25,04,04,2.40
2014,04,25,04,05,2.40
2014,04,25,04,06,2.40
2014,04,25,04,07,2.40
2014,04,25,04,08,2.30
2014,04,25,04,09,2.30
2014,04,25,04,10,2.30
2014,04,25,04,11,2.30
2014,04,25,04,12,2.30
2014,04,25,04,13,2.20
2014,04,25,04,14,2.20
2014,04,25,04,15,2.20
2014,04,25,04,16,2.10
2014,04,25,04,17,2.10
2014,04,25,04,18,2.00
2014,04,25,04,19,2.00
2014,04,25,04,20,2.00
2014,04,25,04,21,2.00
2014,04,25,04,22,2.00
2014,04,25,04,23,2.10
2014,04,25,04,24,2.10
2014,04,25,04,25,2.10
2014,04,25,04,26,2.10
2014,04,25,04,27,2.10
2014,04,25,04,28,2.10
2014,04,25,04,29,2.10
2014,04,25,04,30,2.10
2014,04,25,04,31,2.10
2014,04,25,04,32,2.10
2014,04,25,04,33,2.00
2014,04,25,04,34,1.90
2014,04,25,04,35,1.80
2014,04,25,04,36,1.70
2014,04,25,04,37,1.70
2014,04,25,04,38,1.60
2014,04,25,04,39,1.60
2014,04,25,04,40,1.60
2014,04,25,04,41,1.50
2014,04,25,04,42,1.50
2014,04,25,04,43,1.40
2014,04,25,04,44,1.40
2014,04,25,04,45,1.40
2014,04,25,04,46,1.50
2014,04,25,04,47,1.50
2014,04,25,04,48,1.50
2014,04,25,04,49,1.50
2014,04,25,04,50,1.60
2014,04,25,04,51,1.60
2014,04,25,04,52,1.60
2014,04,25,04,53,1.70
2014,04,25,04,54,1.70
2014,04,25,04,55,1.70
2014,04,25,04,56,1.70
2014,04,25,04,57,1.70
2014,04,25,04,58,1.70
2014,04,25,04,59,1.70
2014,04,25,05,00,1.80
2014,04,25,05,01,1.80
2014,04,25,05,02,1.80
2014,04,25,05,03,1.80
2014,04,25,05,04,1.80
2014,04,25,05,05,1.80
2014,04,25,05,06,1.80
2014,04,25,05,07,1.80
2014,04,25,05,08,1.70
2014,04,25,05,09,1.70
2014,04,25,05,10,1.70
2014,04,25,05,11,1.70
2014,04,25,05,12,1.50
2014,04,25,05,13,1.40
2014,04,25,05,14,1.20
2014,04,25,05,15,1.20
2014,04,25,05,16,1.20
2014,04,25,05,17,1.20
2014,04,25,05,18,1.20
2014,04,25,05,19,1.20
2014,04,25,05,20,1.20
2014,04,25,05,21,1.20
2014,04,25,05,22,1.20
2014,04,25,05,23,1.20
2014,04,25,05,24,1.20
2014,04,25,05,25,1.10
2014,04,25,05,26,1.10
2014,04,25,05,27,1.10
2014,04,25,05,28,1.10
2014,04,25,05,29,1.10
2014,04,25,05,30,1.20
2014,04,25,05,31,1.20
2014,04,25,05,32,1.20
2014,04,25,05,33,1.20
2014,04,25,05,34,1.20
2014,04,25,05,35,1.20
2014,04,25,05,36,1.20
2014,04,25,05,37,1.20
2014,04,25,05,38,1.20
2014,04,25,05,39,1.20
2014,04,25,05,40,1.20
2014,04,25,05,41,1.10
2014,04,25,05,42,1.10
2014,04,25,05,43,1.10
2014,04,25,05,44,1.10
2014,04,25,05,45,1.10
2014,04,25,05,46,1.00
2014,04,25,05,47,1.00
2014,04,25,05,48,1.00
2014,04,25,05,49,1.00
2014,04,25,05,50,0.90
2014,04,25,05,51,0.90
2014,04,25,05,52,0.90
2014,04,25,05,53,0.80
2014,04,25,05,54,0.80
2014,04,25,05,55,0.80
2014,04,25,05,56,0.80
2014,04,25,05,57,0.80
2014,04,25,05,58,0.80
2014,04,25,05,59,0.80
2014,04,25,06,00,0.80
2014,04,25,06,01,0.90
2014,04,25,06,02,0.90
2014,04,25,06,03,0.90
2014,04,25,06,04,0.90
2014,04,25,06,05,0.90
2014,04,25,06,06,0.90
2014,04,25,06,07,0.90
2014,04,25,06,08,0.90
2014,04,25,06,09,0.80
2014,04,25,06,10,0.80
2014,04,25,06,11,0.80
2014,04,25,06,12,0.80
2014,04,25,06,13,0.80
2014,04,25,06,14,0.90
2014,04,25,06,15,0.90
2014,04,25,06,16,1.00
2014,04,25,06,17,1.00
2014,04,25,06,18,1.00
2014,04,25,06,19,1.00
2014,04,25,06,20,1.00
2014,04,25,06,21,0.90
2014,04,25,06,22,0.90
2014,04,25,06,23,0.80
2014,04,25,06,24,0.80
2014,04,25,06,25,0.80
2014,04,25,06,26,0.70
2014,04,25,06,27,0.70
2014,04,25,06,28,0.70
2014,04,25,06,29,0.70
2014,04,25,06,30,0.70
2014,04,25,06,31,0.70
2014,04,25,06,32,0.60
2014,04,25,06,33,0.50
2014,04,25,06,34,0.50
2014,04,25,06,35,0.40
2014,04,25,06,36,0.30
2014,04,25,06,37,0.30
2014,04,25,06,38,0.20
2014,04,25,06,39,0.20
2014,04,25,06,40,0.20
2014,04,25,06,41,0.20
2014,04,25,06,42,0.20
2014,04,25,06,43,0.20
2014,04,25,06,44,0.20
2014,04,25,06,45,0.30
2014,04,25,06,46,0.30
2014,04,25,06,47,0.30
2014,04,25,06,48,0.30
2014,04,25,06,49,0.30
2014,04,25,06,50,0.40
2014,04,25,06,51,0.40
2014,04,25,06,52,0.40
2014,04,25,06,53,0.50
2014,04,25,06,54,0.50
2014,04,25,06,55,0.50
2014,04,25,06,56,0.60
2014,04,25,06,57,0.60
2014,04,25,06,58,0.70
2014,04,25,06,59,0.80
2014,04,25,07,00,0.90
2014,04,25,07,01,1.00
2014,04,25,07,02,1.10
2014,04,25,07,03,1.20
2014,04,25,07,04,1.30
2014,04,25,07,05,1.30
2014,04,25,07,06,1.40
2014,04,25,07,07,1.40
2014,04,25,07,08,1.50
2014,04,25,07,09,1.50
2014,04,25,07,10,1.60
2014,04,25,07,11,1.60
2014,04,25,07,12,1.60
2014,04,25,07,13,1.60
2014,04,25,07,14,1.60
2014,04,25,07,15,1.60
2014,04,25,07,16,1.60
2014,04,25,07,17,1.60
2014,04,25,07,18,1.60
2014,04,25,07,19,1.70
2014,04,25,07,20,1.70
2014,04,25,07,21,1.70
2014,04,25,07,22,1.70
2014,04,25,07,23,1.70
2014,04,25,07,24,1.80
2014,04,25,07,25,1.80
2014,04,25,07,26,1.80
2014,04,25,07,27,1.80
2014,04,25,07,28,1.90
2014,04,25,07,29,1.90
2014,04,25,07,30,2.00
2014,04,25,07,31,2.00
2014,04,25,07,32,2.10
2014,04,25,07,33,2.10
2014,04,25,07,34,2.20
2014,04,25,07,35,2.20
2014,04,25,07,36,2.30
2014,04,25,07,37,2.30
2014,04,25,07,38,2.40
2014,04,25,07,39,2.40
2014,04,25,07,40,2.50
2014,04,25,07,41,2.50
2014,04,25,07,42,2.60
2014,04,25,07,43,2.60
2014,04,25,07,44,2.60
2014,04,25,07,45,2.70
2014,04,25,07,46,2.70
2014,04,25,07,47,2.70
2014,04,25,07,48,2.70
2014,04,25,07,49,2.70
2014,04,25,07,50,2.70
2014,04,25,07,51,2.70
2014,04,25,07,52,2.80
2014,04,25,07,53,2.80
2014,04,25,07,54,2.90
2014,04,25,07,55,2.90
2014,04,25,07,56,3.00
2014,04,25,07,57,3.10
2014,04,25,07,58,3.10
2014,04,25,07,59,3.20
2014,04,25,08,00,3.20
2014,04,25,08,01,3.30
2014,04,25,08,02,3.30
2014,04,25,08,03,3.40
2014,04,25,08,04,3.40
2014,04,25,08,05,3.50
2014,04,25,08,06,3.60
2014,04,25,08,07,3.70
2014,04,25,08,08,3.80
2014,04,25,08,09,3.90
2014,04,25,08,10,4.00
2014,04,25,08,11,4.10
2014,04,25,08,12,4.20
2014,04,25,08,13,4.30
2014,04,25,08,14,4.40
2014,04,25,08,15,4.40
2014,04,25,08,16,4.50
2014,04,25,08,17,4.60
2014,04,25,08,18,4.70
2014,04,25,08,19,4.70
2014,04,25,08,20,4.80
2014,04,25,08,21,4.90
2014,04,25,08,22,5.00
2014,04,25,08,23,5.00
2014,04,25,08,24,5.10
2014,04,25,08,25,5.20
2014,04,25,08,26,5.30
2014,04,25,08,27,5.40
2014,04,25,08,28,5.40
2014,04,25,08,29,5.50
2014,04,25,08,30,5.60
2014,04,25,08,31,5.60
2014,04,25,08,32,5.70
2014,04,25,08,33,5.70
2014,04,25,08,34,5.80
2014,04,25,08,35,5.80
2014,04,25,08,36,5.90
2014,04,25,08,37,6.00
2014,04,25,08,38,6.00
2014,04,25,08,39,6.10
2014,04,25,08,40,6.20
2014,04,25,08,41,6.20
2014,04,25,08,42,6.30
2014,04,25,08,43,6.40
2014,04,25,08,44,6.50
2014,04,25,08,45,6.50
2014,04,25,08,46,6.60
2014,04,25,08,47,6.70
2014,04,25,08,48,6.80
2014,04,25,08,49,6.80
2014,04,25,08,50,6.90
2014,04,25,08,51,7.00
2014,04,25,08,52,7.00
2014,04,25,08,53,7.10
2014,04,25,08,54,7.10
2014,04,25,08,55,7.20
2014,04,25,08,56,7.20
2014,04,25,08,57,7.30
2014,04,25,08,58,7.30
2014,04,25,08,59,7.40
2014,04,25,09,00,7.40
2014,04,25,09,01,7.40
2014,04,25,09,02,7.50
2014,04,25,09,03,7.50
2014,04,25,09,04,7.60
2014,04,25,09,05,7.70
2014,04,25,09,06,7.70
2014,04,25,09,07,7.70
2014,04,25,09,08,7.80
2014,04,25,09,09,7.80
2014,04,25,09,10,7.80
2014,04,25,09,11,7.80
2014,04,25,09,12,7.90
2014,04,25,09,13,7.90
2014,04,25,09,14,8.00
2014,04,25,09,15,8.00
2014,04,25,09,16,8.10
2014,04,25,09,17,8.10
2014,04,25,09,18,8.20
2014,04,25,09,19,8.20
2014,04,25,09,20,8.20
2014,04,25,09,21,8.30
2014,04,25,09,22,8.30
2014,04,25,09,23,8.30
2014,04,25,09,24,8.30
2014,04,25,09,25,8.40
2014,04,25,09,26,8.40
2014,04,25,09,27,8.40
2014,04,25,09,28,8.50
2014,04,25,09,29,8.50
2014,04,25,09,30,8.50
2014,04,25,09,31,8.60
2014,04,25,09,32,8.60
2014,04,25,09,33,8.60
2014,04,25,09,34,8.70
2014,04,25,09,35,8.80
2014,04,25,09,36,8.80
2014,04,25,09,37,8.80
2014,04,25,09,38,8.90
2014,04,25,09,39,8.90
2014,04,25,09,40,9.00
2014,04,25,09,41,9.10
2014,04,25,09,42,9.20
2014,04,25,09,43,9.30
2014,04,25,09,44,9.50
2014,04,25,09,45,9.60
2014,04,25,09,46,9.70
2014,04,25,09,47,9.80
2014,04,25,09,48,9.90
2014,04,25,09,49,10.00
2014,04,25,09,50,10.10
2014,04,25,09,51,10.10
2014,04,25,09,52,10.20
2014,04,25,09,53,10.20
2014,04,25,09,54,10.20
2014,04,25,09,55,10.30
2014,04,25,09,56,10.30
2014,04,25,09,57,10.30
2014,04,25,09,58,10.30
2014,04,25,09,59,10.30
2014,04,25,10,00,10.20
2014,04,25,10,01,10.20
2014,04,25,10,02,10.20
2014,04,25,10,03,10.20
2014,04,25,10,04,10.30
2014,04,25,10,05,10.40
2014,04,25,10,06,10.50
2014,04,25,10,07,10.60
2014,04,25,10,08,10.60
2014,04,25,10,09,10.70
2014,04,25,10,10,10.70
2014,04,25,10,11,10.70
2014,04,25,10,12,10.70
2014,04,25,10,13,10.70
2014,04,25,10,14,10.60
2014,04,25,10,15,10.60
2014,04,25,10,16,10.60
2014,04,25,10,17,10.60
2014,04,25,10,18,10.60
2014,04,25,10,19,10.60
2014,04,25,10,20,10.60
2014,04,25,10,21,10.50
2014,04,25,10,22,10.40
2014,04,25,10,23,10.40
2014,04,25,10,24,10.40
2014,04,25,10,25,10.40
2014,04,25,10,26,10.40
2014,04,25,10,27,10.40
2014,04,25,10,28,10.40
2014,04,25,10,29,10.50
2014,04,25,10,30,10.60
2014,04,25,10,31,10.70
2014,04,25,10,32,10.70
2014,04,25,10,33,10.70
2014,04,25,10,34,10.70
2014,04,25,10,35,10.70
2014,04,25,10,36,10.70
2014,04,25,10,37,10.80
2014,04,25,10,38,10.80
2014,04,25,10,39,10.90
2014,04,25,10,40,10.90
2014,04,25,10,41,11.00
2014,04,25,10,42,11.10
2014,04,25,10,43,11.10
2014,04,25,10,44,11.10
2014,04,25,10,45,11.10
2014,04,25,10,46,11.10
2014,04,25,10,47,11.10
2014,04,25,10,48,11.10
2014,04,25,10,49,11.20
2014,04,25,10,50,11.20
2014,04,25,10,51,11.20
2014,04,25,10,52,11.20
2014,04,25,10,53,11.20
2014,04,25,10,54,11.20
2014,04,25,10,55,11.30
2014,04,25,10,56,11.30
2014,04,25,10,57,11.30
2014,04,25,10,58,11.40
2014,04,25,10,59,11.50
2014,04,25,11,00,11.60
2014,04,25,11,01,11.60
2014,04,25,11,02,11.70
2014,04,25,11,03,11.70
2014,04,25,11,04,11.70
2014,04,25,11,05,11.70
2014,04,25,11,06,11.60
2014,04,25,11,07,11.60
2014,04,25,11,08,11.60
2014,04,25,11,09,11.60
2014,04,25,11,10,11.60
2014,04,25,11,11,11.60
2014,04,25,11,12,11.60
2014,04,25,11,13,11.60
2014,04,25,11,14,11.70
2014,04,25,11,15,11.70
2014,04,25,11,16,11.80
2014,04,25,11,17,11.90
2014,04,25,11,18,12.00
2014,04,25,11,19,12.00
2014,04,25,11,20,12.00
2014,04,25,11,21,11.90
2014,04,25,11,22,11.80
2014,04,25,11,23,11.80
2014,04,25,11,24,11.80
2014,04,25,11,25,11.70
2014,04,25,11,26,11.70
2014,04,25,11,27,11.60
2014,04,25,11,28,11.50
2014,04,25,11,29,11.50
2014,04,25,11,30,11.40
2014,04,25,11,31,11.30
2014,04,25,11,32,11.20
2014,04,25,11,33,11.20
2014,04,25,11,34,11.20
2014,04,25,11,35,11.20
2014,04,25,11,36,11.20
2014,04,25,11,37,11.20
2014,04,25,11,38,11.30
2014,04,25,11,39,11.40
2014,04,25,11,40,11.50
2014,04,25,11,41,11.60
2014,04,25,11,42,11.80
2014,04,25,11,43,12.00
2014,04,25,11,44,12.10
2014,04,25,11,45,12.20
2014,04,25,11,46,12.30
2014,04,25,11,47,12.30
2014,04,25,11,48,12.30
2014,04,25,11,49,12.30
2014,04,25,11,50,12.40
2014,04,25,11,51,12.50
2014,04,25,11,52,12.40
2014,04,25,11,53,12.40
2014,04,25,11,54,12.40
2014,04,25,11,55,12.30
2014,04,25,11,56,12.30
2014,04,25,11,57,12.20
2014,04,25,11,58,12.20
2014,04,25,11,59,12.10
2014,04,25,12,00,12.10
2014,04,25,12,01,12.10
2014,04,25,12,02,12.10
2014,04,25,12,03,12.00
2014,04,25,12,04,11.90
2014,04,25,12,05,11.80
2014,04,25,12,06,11.70
2014,04,25,12,07,11.60
2014,04,25,12,08,11.60
2014,04,25,12,09,11.50
2014,04,25,12,10,11.50
2014,04,25,12,11,11.50
2014,04,25,12,12,11.50
2014,04,25,12,13,11.50
2014,04,25,12,14,11.50
2014,04,25,12,15,11.60
2014,04,25,12,16,11.70
2014,04,25,12,17,11.80
2014,04,25,12,18,11.90
2014,04,25,12,19,12.00
2014,04,25,12,20,12.20
2014,04,25,12,21,12.30
2014,04,25,12,22,12.40
2014,04,25,12,23,12.40
2014,04,25,12,24,12.50
2014,04,25,12,25,12.70
2014,04,25,12,26,12.70
2014,04,25,12,27,12.80
2014,04,25,12,28,12.90
2014,04,25,12,29,12.90
2014,04,25,12,30,13.00
2014,04,25,12,31,13.10
2014,04,25,12,32,13.10
2014,04,25,12,33,13.20
2014,04,25,12,34,13.20
2014,04,25,12,35,13.20
2014,04,25,12,36,13.10
2014,04,25,12,37,13.00
2014,04,25,12,38,13.00
2014,04,25,12,39,13.00
2014,04,25,12,40,13.00
2014,04,25,12,41,13.00
2014,04,25,12,42,13.00
2014,04,25,12,43,12.90
2014,04,25,12,44,12.90
2014,04,25,12,45,12.90
2014,04,25,12,46,13.00
2014,04,25,12,47,12.90
2014,04,25,12,48,12.90
2014,04,25,12,49,12.90
2014,04,25,12,50,12.80
2014,04,25,12,51,12.80
2014,04,25,12,52,12.80
2014,04,25,12,53,12.80
2014,04,25,12,54,12.70
2014,04,25,12,55,12.70
2014,04,25,12,56,12.80
2014,04,25,12,57,12.80
2014,04,25,12,58,12.70
2014,04,25,12,59,12.70
2014,04,25,13,00,12.70
2014,04,25,13,01,12.70
2014,04,25,13,02,12.80
2014,04,25,13,03,13.00
2014,04,25,13,04,13.00
2014,04,25,13,05,12.90
2014,04,25,13,06,12.90
2014,04,25,13,07,13.00
2014,04,25,13,08,13.10
2014,04,25,13,09,13.00
2014,04,25,13,10,12.90
2014,04,25,13,11,12.70
2014,04,25,13,12,12.60
2014,04,25,13,13,12.40
2014,04,25,13,14,12.30
2014,04,25,13,15,12.30
2014,04,25,13,16,12.30
2014,04,25,13,17,12.30
2014,04,25,13,18,12.40
2014,04,25,13,19,12.50
2014,04,25,13,20,12.60
2014,04,25,13,21,12.70
2014,04,25,13,22,12.60
2014,04,25,13,23,12.50
2014,04,25,13,24,12.30
2014,04,25,13,25,12.10
2014,04,25,13,26,11.90
2014,04,25,13,27,11.80
2014,04,25,13,28,11.70
2014,04,25,13,29,11.60
2014,04,25,13,30,11.60
2014,04,25,13,31,11.60
2014,04,25,13,32,11.60
2014,04,25,13,33,11.60
2014,04,25,13,34,11.60
2014,04,25,13,35,11.70
2014,04,25,13,36,11.70
2014,04,25,13,37,11.70
2014,04,25,13,38,11.70
2014,04,25,13,39,11.70
2014,04,25,13,40,11.70
2014,04,25,13,41,11.70
2014,04,25,13,42,11.70
2014,04,25,13,43,11.80
2014,04,25,13,44,11.80
2014,04,25,13,45,11.90
2014,04,25,13,46,11.90
2014,04,25,13,47,11.90
2014,04,25,13,48,11.90
2014,04,25,13,49,11.80
2014,04,25,13,50,11.80
2014,04,25,13,51,11.70
2014,04,25,13,52,11.60
2014,04,25,13,53,11.60
2014,04,25,13,54,11.50
2014,04,25,13,55,11.50
2014,04,25,13,56,11.40
2014,04,25,13,57,11.40
2014,04,25,13,58,11.30
2014,04,25,13,59,11.30
2014,04,25,14,00,11.30
2014,04,25,14,01,11.30
2014,04,25,14,02,11.40
2014,04,25,14,03,11.50
2014,04,25,14,04,11.60
2014,04,25,14,05,11.70
2014,04,25,14,06,11.90
2014,04,25,14,07,12.00
2014,04,25,14,08,12.10
2014,04,25,14,09,12.10
2014,04,25,14,10,12.20
2014,04,25,14,11,12.30
2014,04,25,14,12,12.40
2014,04,25,14,13,12.40
2014,04,25,14,14,12.50
2014,04,25,14,15,12.60
2014,04,25,14,16,12.70
2014,04,25,14,17,12.70
2014,04,25,14,18,12.70
2014,04,25,14,19,12.70
2014,04,25,14,20,12.80
2014,04,25,14,21,12.80
2014,04,25,14,22,12.90
2014,04,25,14,23,12.90
2014,04,25,14,24,13.00
2014,04,25,14,25,13.10
2014,04,25,14,26,13.20
2014,04,25,14,27,13.20
2014,04,25,14,28,13.10
2014,04,25,14,29,13.00
2014,04,25,14,30,13.00
2014,04,25,14,31,13.00
2014,04,25,14,32,13.10
2014,04,25,14,33,13.20
2014,04,25,14,34,13.30
2014,04,25,14,35,13.40
2014,04,25,14,36,13.60
2014,04,25,14,37,13.70
2014,04,25,14,38,13.80
2014,04,25,14,39,13.80
2014,04,25,14,40,13.70
2014,04,25,14,41,13.70
2014,04,25,14,42,13.70
2014,04,25,14,43,13.70
2014,04,25,14,44,13.60
2014,04,25,14,45,13.50
2014,04,25,14,46,13.40
2014,04,25,14,47,13.30
2014,04,25,14,48,13.30
2014,04,25,14,49,13.30
2014,04,25,14,50,13.30
2014,04,25,14,51,13.30
2014,04,25,14,52,13.20
2014,04,25,14,53,13.20
2014,04,25,14,54,13.30
2014,04,25,14,55,13.20
2014,04,25,14,56,13.20
2014,04,25,14,57,13.30
2014,04,25,14,58,13.30
2014,04,25,14,59,13.30
2014,04,25,15,00,13.30
2014,04,25,15,01,13.30
2014,04,25,15,02,13.30
2014,04,25,15,03,13.20
2014,04,25,15,04,13.20
2014,04,25,15,05,13.20
2014,04,25,15,06,13.20
2014,04,25,15,07,13.10
2014,04,25,15,08,13.10
2014,04,25,15,09,13.10
2014,04,25,15,10,13.00
2014,04,25,15,11,13.00
2014,04,25,15,12,12.90
2014,04,25,15,13,13.00
2014,04,25,15,14,13.00
2014,04,25,15,15,13.10
2014,04,25,15,16,13.10
2014,04,25,15,17,13.10
2014,04,25,15,18,13.20
2014,04,25,15,19,13.20
2014,04,25,15,20,13.20
2014,04,25,15,21,13.30
2014,04,25,15,22,13.30
2014,04,25,15,23,13.30
2014,04,25,15,24,13.30
2014,04,25,15,25,13.20
2014,04,25,15,26,13.20
2014,04,25,15,27,13.20
2014,04,25,15,28,13.20
2014,04,25,15,29,13.30
2014,04,25,15,30,13.30
2014,04,25,15,31,13.30
2014,04,25,15,32,13.30
2014,04,25,15,33,13.30
2014,04,25,15,34,13.30
2014,04,25,15,35,13.30
2014,04,25,15,36,13.30
2014,04,25,15,37,13.30
2014,04,25,15,38,13.30
2014,04,25,15,39,13.30
2014,04,25,15,40,13.40
2014,04,25,15,41,13.40
2014,04,25,15,42,13.50
2014,04,25,15,43,13.50
2014,04,25,15,44,13.50
2014,04,25,15,45,13.50
2014,04,25,15,46,13.50
2014,04,25,15,47,13.60
2014,04,25,15,48,13.60
2014,04,25,15,49,13.70
2014,04,25,15,50,13.70
2014,04,25,15,51,13.80
2014,04,25,15,52,13.80
2014,04,25,15,53,13.70
2014,04,25,15,54,13.60
2014,04,25,15,55,13.60
2014,04,25,15,56,13.50
2014,04,25,15,57,13.60
2014,04,25,15,58,13.60
2014,04,25,15,59,13.60
2014,04,25,16,00,13.70
2014,04,25,16,01,13.80
2014,04,25,16,02,13.80
2014,04,25,16,03,13.80
2014,04,25,16,04,13.90
2014,04,25,16,05,13.90
2014,04,25,16,06,13.80
2014,04,25,16,07,13.70
2014,04,25,16,08,13.60
2014,04,25,16,09,13.50
2014,04,25,16,10,13.40
2014,04,25,16,11,13.30
2014,04,25,16,12,13.20
2014,04,25,16,13,13.10
2014,04,25,16,14,13.00
2014,04,25,16,15,13.10
2014,04,25,16,16,13.10
2014,04,25,16,17,13.20
2014,04,25,16,18,13.10
2014,04,25,16,19,13.10
2014,04,25,16,20,13.20
2014,04,25,16,21,13.20
2014,04,25,16,22,13.20
2014,04,25,16,23,13.30
2014,04,25,16,24,13.30
2014,04,25,16,25,13.30
2014,04,25,16,26,13.20
2014,04,25,16,27,13.20
2014,04,25,16,28,13.20
2014,04,25,16,29,13.10
2014,04,25,16,30,13.10
2014,04,25,16,31,13.10
2014,04,25,16,32,13.10
2014,04,25,16,33,13.20
2014,04,25,16,34,13.30
2014,04,25,16,35,13.40
2014,04,25,16,36,13.50
2014,04,25,16,37,13.60
2014,04,25,16,38,13.50
2014,04,25,16,39,13.40
2014,04,25,16,40,13.40
2014,04,25,16,41,13.30
2014,04,25,16,42,13.30
2014,04,25,16,43,13.30
2014,04,25,16,44,13.30
2014,04,25,16,45,13.40
2014,04,25,16,46,13.40
2014,04,25,16,47,13.30
2014,04,25,16,48,13.40
2014,04,25,16,49,13.40
2014,04,25,16,50,13.40
2014,04,25,16,51,13.50
2014,04,25,16,52,13.60
2014,04,25,16,53,13.70
2014,04,25,16,54,13.70
2014,04,25,16,55,13.80
2014,04,25,16,56,13.80
2014,04,25,16,57,13.70
2014,04,25,16,58,13.70
2014,04,25,16,59,13.70
2014,04,25,17,00,13.70
2014,04,25,17,01,13.80
2014,04,25,17,02,13.80
2014,04,25,17,03,13.80
2014,04,25,17,04,13.70
2014,04,25,17,05,13.70
2014,04,25,17,06,13.70
2014,04,25,17,07,13.70
2014,04,25,17,08,13.70
2014,04,25,17,09,13.70
2014,04,25,17,10,13.70
2014,04,25,17,11,13.80
2014,04,25,17,12,13.90
2014,04,25,17,13,13.90
2014,04,25,17,14,13.90
2014,04,25,17,15,14.00
2014,04,25,17,16,14.00
2014,04,25,17,17,14.10
2014,04,25,17,18,14.20
2014,04,25,17,19,14.20
2014,04,25,17,20,14.20
2014,04,25,17,21,14.20
2014,04,25,17,22,14.20
2014,04,25,17,23,14.30
2014,04,25,17,24,14.30
2014,04,25,17,25,14.30
2014,04,25,17,26,14.20
2014,04,25,17,27,14.20
2014,04,25,17,28,14.10
2014,04,25,17,29,14.10
2014,04,25,17,30,14.00
2014,04,25,17,31,14.00
2014,04,25,17,32,14.00
2014,04,25,17,33,14.10
2014,04,25,17,34,14.20
2014,04,25,17,35,14.30
2014,04,25,17,36,14.30
2014,04,25,17,37,14.30
2014,04,25,17,38,14.30
2014,04,25,17,39,14.30
2014,04,25,17,40,14.30
2014,04,25,17,41,14.30
2014,04,25,17,42,14.30
2014,04,25,17,43,14.20
2014,04,25,17,44,14.20
2014,04,25,17,45,14.10